カタログに戻る

NOAA 16 DEB

運用中SSO
NORAD 41516·DEBRIS·🇺🇸 United States

打ち上げ Sep 21, 2000 から Vandenberg Space Force Base

Loading…

次のパス (今後24時間)

TLE

最新Source: Space-Track

元期: Sep 14, 2026, 11:27 UTC

1 41516U 00055MQ  26257.47735272  .00003089  00000-0  10627-2 0  9994
2 41516  98.6692 347.0818 0011968 236.6742 123.3298 14.36697132539462

AllMySatでNOAA 16 DEBをリアルタイム追跡

Download on the App Store